Location: Doverdale
(52.2833°N, 2.2000°W)
Time: 03:03:58
(UTC+00:00)

Cosmos 1758 Rocket - Pass Details

Date: 29 October 2020
Orbit: 601 x 637 km, 82.5° (Epoch: 27 November)

Event Time Altitude Azimuth Distance (km) Brightness Sun altitude
Rises 17:25:58 0° 346° (NNW) 2,915 7.0 -6.9°
Reaches altitude 10° 17:28:15 10° 343° (NNW) 1,998 6.2 -7.2°
Maximum altitude 17:32:35 60° 264° (W) 709 4.3 -7.9°
Drops below altitude 10° 17:36:52 10° 185° (S) 1,960 6.4 -8.5°
Sets 17:39:04 0° 182° (S) 2,855 7.1 -8.8°
